Date,Time,Ammonium-nitrogen,Total oxidised nitrogen,Nitrate-nitrogen,Nitrite-nitrogen,Suspended solids,Soluble reactive phosphorus,Dissolved organic carbon,Total phosphorus
Date,Time,Ammonium-nitrogen,Total oxidised nitrogen,Nitrate-nitrogen,Nitrite-nitrogen,Suspended solids,Soluble reactive phosphorus,Dissolved organic carbon,Total phosphorus
Units: Year month day,Units: Hour minute second,Units: milligrams per litre,Units: milligrams per litre,Units: milligrams per litre,Units: milligrams per litre,Units: milligrams per litre,Units: milligrams per litre,Units: milligrams per litre,Units: milligrams per litre
2012-01-03,14:07:00,< .03,0.34,0.336,< .004,11.5,0.0152,5.06,0.0417
2012-01-03,15:07:00,< .03,0.45,0.446,< .004,7.58,0.017,4.17,0.0403
2012-01-03,16:07:00,< .03,0.39,0.386,< .004,6.72,0.0149,4.06,0.0359
2012-01-03,17:07:00,< .03,0.41,0.406,< .004,7.77,0.0133,4.03,0.033
2012-01-03,18:07:00,< .03,0.5,0.496,< .004,5.73,0.0128,3.96,0.0303
2012-01-03,19:07:00,< .03,0.44,0.436,< .004,6.82,0.0125,3.72,0.028
2012-01-03,20:07:00,< .03,0.5,0.496,< .004,5.33,0.0115,3.66,0.0281
2012-01-03,21:07:00,< .03,0.51,0.506,< .004,5.32,0.0117,3.66,0.0204
2012-01-03,22:07:00,< .03,0.54,0.536,< .004,5.03,0.0117,3.35,0.0277
2012-01-03,23:07:00,< .03,0.53,0.526,< .004,5.13,0.0115,3.42,0.0274
2012-01-04,00:07:00,< .03,0.53,0.526,< .004,4.67,0.0099,3.32,0.0238
2012-01-04,01:07:00,< .03,0.54,0.536,< .004,5.47,0.0099,3.55,0.0234
2012-01-04,02:07:00,< .03,0.56,0.556,< .004,4.18,0.0094,3.2,0.0238
2012-01-04,03:07:00,< .03,0.56,0.556,< .004,4.23,0.0089,3.18,0.0206
2012-01-04,04:07:00,< .03,0.52,0.516,< .004,4.98,0.0096,3.06,0.0248
2012-01-04,05:07:00,< .03,0.53,0.526,< .004,3.98,0.0084,3.09,0.025
2012-01-04,06:07:00,< .03,0.52,0.516,< .004,< 3,0.0082,3.21,0.0222
2012-01-04,07:07:00,< .03,0.52,0.516,< .004,3.38,0.0086,3.07,0.0201
2012-01-04,08:07:00,< .03,0.49,0.486,< .004,3.52,0.0083,3.11,0.0185
2012-01-04,09:07:00,< .03,0.51,0.506,< .004,3.65,0.0084,3.12,0.0204
2012-01-04,10:07:00,< .03,0.5,0.496,< .004,4.62,0.0088,3.07,0.0194
2012-01-04,11:07:00,< .03,0.5,0.496,< .004,3.55,0.0089,3.05,0.0177
2012-01-04,12:07:00,< .03,0.49,0.486,< .004,3.62,0.0086,3.05,0.0258
2012-01-04,13:07:00,< .03,0.49,0.486,< .004,4.2,0.0099,2.95,0.0208
2012-01-25,11:23,< .03,0.36,0.356,< .004,6.82,0.0031,3.99,0.022
2012-01-25,12:23,< .03,0.39,0.386,< .004,3.37,0.0053,3.46,0.0156
2012-01-25,13:23,< .03,0.39,0.386,< .004,< 3,0.0059,3.43,0.0179
2012-01-25,14:23,< .03,0.37,0.366,< .004,< 3,0.0062,3.37,0.0172
2012-01-25,15:23,< .03,0.38,0.376,< .004,< 3,0.0064,3.35,0.0153
2012-01-25,16:23,< .03,0.44,0.436,< .004,< 3,0.0067,3.41,0.0154
2012-01-25,17:23,< .03,0.4,0.396,< .004,3.07,0.0066,3.33,0.019
2012-01-25,18:23,< .03,0.39,0.386,< .004,3.13,0.0068,3.46,0.0184
2012-01-25,19:23,< .03,0.39,0.386,< .004,4.82,0.0074,3.35,0.0201
2012-01-25,20:23,< .03,0.39,0.386,< .004,6.12,0.0076,3.37,0.0232
2012-01-25,21:23,< .03,0.36,0.356,< .004,9.48,0.00904,3.43,0.039
2012-01-25,22:23,< .03,0.29,0.286,< .004,31.8,0.011,3.94,0.0842
2012-01-25,23:23,< .03,0.22,0.216,< .004,57.8,0.0138,4.7,0.151
2012-01-26,00:23,< .03,0.21,0.206,< .004,29.2,0.014,5.01,0.0809
2012-01-25,01:23,< .03,0.22,0.216,< .004,14.5,0.013,4.97,0.0581
2012-01-26,02:23,< .03,0.22,0.216,< .004,12,0.0112,5.1,0.045
2012-01-26,03:23,< .03,0.27,0.266,< .004,10.4,0.0109,5.06,0.0384
2012-01-26,04:23,< .03,0.25,0.246,< .004,7.98,0.0101,5.08,0.0352
2012-01-26,05:23,< .03,0.26,0.256,< .004,6.23,0.0099,5.05,0.0309
2012-01-26,06:23,< .03,0.27,0.266,< .004,4.53,0.0097,5.15,0.0313
2012-01-26,07:23,< .03,0.28,0.276,< .004,4.13,0.0084,4.89,0.0278
2012-01-26,08:23,< .03,0.31,0.306,< .004,3.38,0.0084,4.94,0.0269
2012-01-26,09:23,< .03,0.29,0.286,< .004,3.53,0.0078,4.93,0.0248
2012-01-26,10:23,< .03,0.32,0.316,< .004,4.05,0.0077,4.63,0.0236
2012-04-26,16:01,< .03,< .2,< .196,< .004,18.6,0.00863,12.6,0.0622
2012-04-26,16:31,< .03,< .2,< .196,< .004,10.6,0.0155,9.75,0.064
2012-04-26,17:01,< .03,< .2,< .196,< .004,10.5,0.017,9.86,0.0625
2012-04-26,17:31,< .03,0.2,0.196,< .004,10.5,0.0175,10,0.0625
2012-04-26,18:01,< .03,0.21,0.206,< .004,8.95,0.0157,9.41,0.0574
2012-04-26,18:31,< .03,0.21,0.206,< .004,10.1,0.0168,9.07,0.0561
2012-04-26,19:01,< .03,0.23,0.226,< .004,8.55,0.0158,9.11,0.0559
2012-04-26,19:31,< .03,0.22,0.216,< .004,8.6,0.0149,9.38,0.0549
2012-04-26,20:01,< .03,0.29,0.286,< .004,7.25,0.015,8.79,0.0521
2012-04-26,20:31,< .03,0.24,0.236,< .004,7.8,0.0152,9.03,0.0507
2012-04-26,21:01,< .03,0.24,0.236,< .004,8.2,0.0147,9.34,0.0515
2012-04-26,21:31,< .03,0.29,0.286,< .004,6.25,0.0137,8.57,0.0461
2012-04-26,22:01,< .03,0.26,0.256,< .004,6.8,0.0135,8.24,0.0488
2012-04-26,22:31,< .03,0.28,0.276,< .004,6.65,0.0136,8.2,0.0435
2012-04-26,23:01,< .03,0.26,0.256,< .004,7,0.0128,9.3,0.0441
2012-04-26,23:31,< .03,0.33,0.326,< .004,4.45,0.0126,7.9,0.0396
2012-04-27,00:02,< .03,0.28,0.276,< .004,6.87,0.0128,7.7,0.0413
2012-04-27,00:31,< .03,0.3,0.296,< .004,5.9,0.0124,7.44,0.043
2012-04-27,01:01,< .03,0.28,0.276,< .004,6.07,0.0131,7.2,0.0406
2012-04-27,01:31,< .03,0.29,0.286,< .004,6.12,0.0114,7.27,0.0402
2012-04-27,02:01,< .03,0.3,0.296,< .004,,0.0121,7.21,0.0321
2012-04-27,02:31,< .03,0.28,0.276,< .004,< 3,0.012,7.13,0.0316
2012-04-27,03:01,< .03,0.3,0.296,< .004,6.57,0.0111,7.19,0.0382
2012-04-27,03:31,< .03,0.28,0.276,< .004,9.77,0.0123,7.19,0.0469
2012-06-22,08:43,< .03,0.35,0.346,< .004,64.2,0.0104,13.2,0.171
2012-06-22,09:13,0.072,0.42,0.416,< .004,48.6,0.0251,11.3,0.182
2012-06-22,09:43,0.083,0.32,0.316,< .004,43.7,0.0292,11.9,0.145
2012-06-22,10:13,0.078,0.29,0.286,< .004,31.9,0.0296,11.7,0.166
2012-06-22,10:43,0.08,0.28,0.276,< .004,26.7,0.03,11.9,0.129
2012-06-22,11:13,0.068,0.29,0.286,< .004,27.9,0.0292,11.7,0.126
2012-06-22,11:43,0.066,0.26,0.256,< .004,29.3,0.0287,12.3,0.13
2012-06-22,12:13,0.072,0.24,0.236,< .004,30.1,0.0313,11.1,0.129
2012-06-22,12:43,0.069,0.23,0.226,< .004,30,0.0308,11.6,0.125
2012-06-22,13:13,0.059,0.22,0.216,< .004,26.2,0.0297,12,0.118
2012-06-22,13:43,0.046,< .2,< .196,< .004,20.5,0.0277,11.8,0.115
2012-06-22,14:13,0.055,< .2,< .196,< .004,21.1,0.029,5.86,0.114
2012-06-22,14:43,0.053,< .2,< .196,< .004,19.2,0.0292,11.4,0.11
2012-06-22,15:13,0.045,< .2,< .196,< .004,22,0.0282,11.9,0.11
2012-06-22,15:43,0.043,< .2,< .196,< .004,23.6,0.0297,11.7,0.112
2012-06-22,16:13,0.043,< .2,< .196,< .004,20.6,0.0282,11.5,0.0942
2012-06-22,16:43,0.044,< .2,< .196,< .004,22.3,0.0291,11.5,0.108
2012-06-22,17:13,0.037,< .2,< .196,< .004,23.2,0.028,11.4,0.0992
2012-06-22,17:43,< .03,< .2,< .196,< .004,24.5,0.0272,11,0.0944
2012-06-22,18:13,0.037,< .2,< .196,< .004,31.1,0.0265,10.7,0.121
2012-06-22,18:43,0.035,< .2,< .196,< .004,31.6,0.0299,10.6,0.13
2012-06-22,19:13,0.036,< .2,< .196,< .004,36.1,0.0316,10,0.127
2012-06-22,19:43,0.037,< .2,< .196,< .004,34.4,0.031,10,0.122
2012-06-22,20:13,0.066,< .2,< .196,< .004,41.1,0.0324,10,0.13
2012-06-28,16:21,< .03,< .2,< .196,< .004,18.9,0.0175,13.1,0.105
2012-06-28,17:21,0.031,< .2,< .196,< .004,11.2,0.0226,13.8,0.0975
2012-06-28,18:21,< .03,< .2,< .196,< .004,9.88,0.0182,13.5,0.0808
2012-06-28,19:21,< .03,< .2,< .196,< .004,7.18,0.0172,13.6,0.0777
2012-06-28,20:21,< .03,< .2,< .196,< .004,7.43,0.0173,12.9,0.0721
2012-06-28,21:21,< .03,< .2,< .196,< .004,5.48,0.0163,14.6,0.0669
2012-06-28,22:21,< .03,< .2,< .196,< .004,4.12,0.0143,11.5,0.0622
2012-06-28,23:21,< .03,< .2,< .196,< .004,5.97,0.0149,12.3,0.0751
2012-06-29,00:21,< .03,< .2,< .196,< .004,6.62,0.0166,12,0.0603
2012-06-29,01:21,< .03,< .2,< .196,< .004,5.17,0.0136,11.6,0.057
2012-06-29,02:21,0.373,< .2,< .196,< .004,6.72,0.0646,12.7,0.163
2012-06-29,03:21,< .03,< .2,< .196,< .004,5.57,0.012,10.5,0.0478
2012-06-29,04:21,< .03,< .2,< .196,< .004,3.72,0.0113,10.4,0.0438
2012-06-29,05:21,< .03,< .2,< .196,< .004,4.12,0.0114,10.5,0.0509
2012-06-29,06:21,< .03,< .2,< .196,< .004,< 3,0.0123,10,0.0438
2012-06-29,07:21,< .03,< .2,< .196,< .004,3.72,0.011,9.06,0.0399
2012-06-29,08:21,< .03,< .2,< .196,< .004,4.07,0.011,9.57,0.0414
2012-06-29,09:21,< .03,< .2,< .196,< .004,3.32,0.0111,9.22,0.0447
2012-06-29,10:21,< .03,< .2,< .196,< .004,4.05,0.0105,9.17,0.0422
2012-06-29,11:21,< .03,< .2,< .196,< .004,3.15,0.0097,9.14,0.0363
2012-06-29,12:21,< .03,< .2,< .196,< .004,4.27,0.0096,9.45,0.0397
2012-06-29,13:21,< .03,< .2,< .196,< .004,6.62,0.0096,8.64,0.0407
2012-06-29,14:21,< .03,< .2,< .196,< .004,4.77,0.0092,9,0.0373
2012-06-29,15:21,< .03,< .2,< .196,< .004,5.22,0.0088,8.72,0.0385
2012-08-15,17:19,0.034,0.26,0.256,< .004,122,0.0183,6.9,0.396
2012-08-15,18:19,0.19,0.25,0.246,< .004,95.9,0.0375,10.3,0.406
2012-08-15,19:19,0.144,< .2,< .196,< .004,37.8,0.0547,12.5,0.254
2012-08-15,20:19,0.098,< .2,< .196,< .004,21.6,0.0413,12.7,0.186
2012-08-15,21:19,0.069,< .2,< .196,< .004,15.4,0.0343,12.8,0.139
2012-08-15,22:19,0.054,< .2,< .196,< .004,11.7,0.0349,13.4,0.123
2012-08-15,23:19,0.037,< .2,< .196,< .004,10.3,0.0287,13,0.108
2012-08-16,00:19,0.035,< .2,< .196,< .004,6.58,0.028,13.4,0.0976
2012-08-16,01:19,< .03,< .2,< .196,< .004,7.53,0.0236,13.6,0.0881
2012-08-16,02:19,< .03,< .2,< .196,< .004,6.33,0.0213,13.3,0.0859
2012-08-16,03:19,< .03,< .2,< .196,< .004,6.28,0.0237,13.3,0.0779
2012-08-16,04:19,< .03,< .2,< .196,< .004,5.23,0.0223,13.1,0.0733
2012-08-16,05:19,< .03,< .2,< .196,< .004,5.27,0.0203,13.1,0.0674
2012-08-16,06:19,< .03,< .2,< .196,< .004,4.82,0.0195,12.7,0.0635
2012-08-16,07:19,< .03,< .2,< .196,< .004,4.57,0.0195,10.9,0.0624
2012-08-16,08:19,< .03,< .2,< .196,< .004,3.52,0.0195,12.3,0.0598
2012-08-16,09:19,< .03,< .2,< .196,< .004,< 3,0.0193,13.6,0.0615
2012-08-16,10:19,< .03,< .2,< .196,< .004,4.42,0.0182,11.6,0.0567
2012-08-16,11:19,< .03,< .2,< .196,< .004,6.22,0.0178,12.3,0.0749
2012-08-16,12:19,< .03,< .2,< .196,< .004,3.42,0.0164,11.8,0.0529
2012-08-16,13:19,0.06,< .2,< .196,< .004,< 3,0.0266,11.9,0.07
2012-08-16,14:19,< .03,< .2,< .196,< .004,3.72,0.0158,11.5,0.0508
2012-08-16,15:19,< .03,< .2,< .196,< .004,4.22,0.0149,11.7,0.0466
2012-08-16,16:19,< .03,< .2,< .196,< .004,4.07,0.016,11.2,0.053
2012-09-24,13:52:00,< .03,< .2,< .196,< .004,81.7,0.0082,8.54,0.199
2012-09-24,14:52:00,< .03,< .2,< .196,< .004,108,0.0181,8.77,0.317
2012-09-24,15:52:00,0.033,< .2,< .196,< .004,76.3,0.0224,9.23,0.229
2012-09-24,16:52:00,< .03,< .2,0.195,0.0046,64.1,0.0265,9.68,0.194
2012-09-24,17:52:00,0.03,< .2,0.195,0.0054,26.4,0.029,10,0.121
2012-09-24,18:52:00,< .03,< .2,< .196,< .004,49.5,0.0289,9.19,0.166
2012-09-24,19:52:00,< .03,< .2,0.194,0.006,32.2,0.0283,9.93,0.133
2012-09-24,20:52:00,< .03,< .2,0.192,0.0079,18.4,0.0273,9.25,0.111
2012-09-24,21:52:00,< .03,< .2,0.192,0.0081,17,0.0268,9.79,0.101
2012-09-24,22:52:00,< .03,< .2,0.192,0.0083,16.2,0.0266,9.12,0.0988
2012-09-24,23:52:00,< .03,< .2,0.193,0.0074,13.6,0.025,8.69,0.0931
2012-09-25,00:52:00,< .03,< .2,0.193,0.0074,15.8,0.0245,9.7,0.0934
2012-09-25,01:52:00,< .03,< .2,0.192,0.0081,23.4,0.0256,9.19,0.11
2012-09-25,02:52:00,< .03,< .2,0.192,0.0076,25,0.0256,8.58,0.107
2012-09-25,03:52:00,0.06,< .2,0.192,0.008,24.2,0.0313,8.97,0.119
2012-09-25,04:52:00,< .03,< .2,0.195,0.0048,28.1,0.0269,8.38,0.107
2012-09-25,05:52:00,< .03,< .2,0.196,0.0042,38.8,0.0281,8.25,0.131
2012-09-25,06:52:00,< .03,< .2,0.193,0.007,43.1,0.0297,8.38,0.145
2012-09-25,07:52:00,< .03,< .2,0.192,0.0079,29,0.028,8.46,0.106
2012-09-25,08:52:00,< .03,< .2,0.193,0.0074,22.1,0.0274,9.15,0.103
2012-09-25,09:52:00,< .03,< .2,0.194,0.0061,16,0.0275,7.99,0.0902
2012-09-25,10:52:00,< .03,< .2,0.193,0.0071,16.1,0.0264,8.02,0.088
2012-09-25,11:52:00,< .03,< .2,0.192,0.0076,15.4,0.0254,7.76,0.0867
2012-09-25,12:52:00,< .03,< .2,0.194,0.0056,14.1,0.0233,8.01,0.0769
2013-10-16,21:13,< .03,0.23,0.226,< .004,19.4,0.0223,13,0.13
2013-10-17,00:13,< .03,0.22,0.216,< .004,13.4,0.0234,10.8,0.0867
2013-10-17,03:13,0.077,0.21,0.206,< .004,9.9,0.0536,9.98,0.148
2013-10-17,06:13,< .03,0.21,0.206,< .004,8.58,0.0197,9.11,0.0717
2013-10-17,09:13,< .03,0.2,0.196,< .004,6.08,0.018,8.4,0.0563
2013-10-17,12:13,0.034,< .2,< .196,< .004,6.88,0.0146,8.15,0.059
2013-10-17,15:13,< .03,< .2,< .196,< .004,5.08,0.0149,7.85,0.0464
2013-10-17,18:13,0.036,< .2,< .196,< .004,4.98,0.0176,7.38,0.0469
